| time (UTC) | temp C | wind direction | speed KPH | gust KPH | rain 1hr cm | rain 24hr cm | rain mn cm | humidity % | barometer mb |
| 20260505224146 | 25 | 254 | 8.0 | 16.1 | 0.00 | 0.03 | 0.03 | 40 | 1005.9 |
| 20260505223647 | 25 | 207 | 6.4 | 19.3 | 0.00 | 0.03 | 0.03 | 40 | 1005.9 |
| 20260505223148 | 25 | 275 | 11.3 | 37.0 | 0.00 | 0.03 | 0.03 | 40 | 1006.0 |
| 20260505222915 | 25 | 142 | 14.5 | 37.0 | 0.00 | 0.03 | 0.03 | 39 | 1006.0 |
| 20260505222147 | 25 | 248 | 12.9 | 27.4 | 0.00 | 0.03 | 0.03 | 40 | 1006.0 |
| 20260505221647 | 25 | 261 | 11.3 | 29.0 | 0.00 | 0.03 | 0.03 | 39 | 1006.0 |
| 20260505221146 | 25 | 169 | 14.5 | 29.0 | 0.00 | 0.03 | 0.03 | 40 | 1006.0 |
| 20260505220645 | 25 | 178 | 14.5 | 29.0 | 0.00 | 0.03 | 0.03 | 39 | 1006.1 |
| 20260505220146 | 26 | 235 | 12.9 | 29.0 | 0.00 | 0.03 | 0.03 | 39 | 1006.1 |
| 20260505215919 | 26 | 215 | 14.5 | 27.4 | 0.00 | 0.03 | 0.03 | 38 | 1006.0 |
| 20260505215147 | 26 | 241 | 14.5 | 27.4 | 0.00 | 0.03 | 0.03 | 39 | 1006.0 |
| 20260505214645 | 26 | 253 | 17.7 | 27.4 | 0.00 | 0.03 | 0.03 | 38 | 1006.0 |
| 20260505214408 | 26 | 173 | 9.7 | 25.7 | 0.00 | 0.03 | 0.03 | 39 | 1005.9 |
| 20260505213647 | 26 | 252 | 16.1 | 25.7 | 0.00 | 0.03 | 0.03 | 38 | 1005.8 |
| 20260505213146 | 26 | 240 | 9.7 | 24.1 | 0.00 | 0.03 | 0.03 | 40 | 1005.7 |
| 20260505212911 | 26 | 265 | 14.5 | 22.5 | 0.00 | 0.03 | 0.03 | 39 | 1005.7 |
| 20260505212146 | 26 | 235 | 9.7 | 22.5 | 0.00 | 0.03 | 0.03 | 40 | 1005.7 |
| 20260505211919 | 26 | 196 | 9.7 | 22.5 | 0.00 | 0.03 | 0.03 | 40 | 1005.7 |
| 20260505211411 | 26 | 179 | 9.7 | 29.0 | 0.00 | 0.03 | 0.03 | 39 | 1005.7 |
| 20260505210643 | 26 | 244 | 14.5 | 30.6 | 0.00 | 0.03 | 0.03 | 39 | 1005.8 |
| 20260505210143 | 26 | 212 | 14.5 | 41.8 | 0.00 | 0.03 | 0.03 | 39 | 1005.8 |
| 20260505205911 | 26 | 286 | 12.9 | 41.8 | 0.00 | 0.03 | 0.03 | 40 | 1005.7 |
| 20260505205230 | 26 | 210 | 9.7 | 29.0 | 0.00 | 0.03 | 0.03 | 40 | 1005.7 |
| 20260505205221 | 26 | 215 | 12.9 | 37.0 | 0.00 | 0.03 | 0.03 | 40 | 1005.8 |
| 20260505205149 | 26 | 244 | 14.5 | 29.0 | 0.00 | 0.03 | 0.03 | 41 | 1005.7 |
| 20260505203636 | 26 | 220 | 17.7 | 40.2 | 0.00 | 0.03 | 0.03 | 40 | 1005.7 |
| 20260505203137 | 26 | 216 | 17.7 | 40.2 | 0.00 | 0.03 | 0.03 | 39 | 1005.9 |
| 20260505202636 | 26 | 279 | 9.7 | 33.8 | 0.00 | 0.03 | 0.03 | 40 | 1005.7 |
| 20260505202134 | 26 | 261 | 16.1 | 35.4 | 0.00 | 0.03 | 0.03 | 40 | 1005.9 |
| 20260505201631 | 26 | 255 | 11.3 | 35.4 | 0.00 | 0.03 | 0.03 | 40 | 1005.9 |
| 20260505201130 | 26 | 200 | 12.9 | 33.8 | 0.00 | 0.03 | 0.03 | 40 | 1005.9 |
| 20260505200631 | 26 | 171 | 14.5 | 24.1 | 0.00 | 0.03 | 0.03 | 40 | 1006.0 |
| 20260505200130 | 26 | 179 | 11.3 | 24.1 | 0.00 | 0.03 | 0.03 | 40 | 1006.0 |
| 20260505195629 | 26 | 273 | 14.5 | 27.4 | 0.00 | 0.03 | 0.03 | 39 | 1006.1 |
| 20260505195129 | 26 | 182 | 14.5 | 27.4 | 0.00 | 0.03 | 0.03 | 39 | 1006.0 |
| 20260505194627 | 26 | 193 | 11.3 | 25.7 | 0.00 | 0.03 | 0.03 | 39 | 1006.1 |
| 20260505194348 | 27 | 249 | 12.9 | 29.0 | 0.00 | 0.03 | 0.03 | 39 | 1006.1 |
| 20260505193625 | 27 | 196 | 11.3 | 29.0 | 0.00 | 0.03 | 0.03 | 38 | 1006.0 |
| 20260505193123 | 27 | 157 | 12.9 | 27.4 | 0.00 | 0.03 | 0.03 | 40 | 1006.2 |
| 20260505192622 | 26 | 254 | 14.5 | 30.6 | 0.00 | 0.03 | 0.03 | 39 | 1006.1 |
| 20260505192122 | 26 | 221 | 12.9 | 30.6 | 0.00 | 0.03 | 0.03 | 39 | 1006.3 |
| 20260505191623 | 26 | 254 | 6.4 | 29.0 | 0.00 | 0.03 | 0.03 | 40 | 1006.2 |
| 20260505191122 | 26 | 213 | 16.1 | 29.0 | 0.00 | 0.03 | 0.03 | 40 | 1006.5 |
| 20260505190621 | 26 | 209 | 11.3 | 33.8 | 0.00 | 0.03 | 0.03 | 39 | 1006.4 |
| 20260505190121 | 26 | 221 | 8.0 | 37.0 | 0.00 | 0.03 | 0.03 | 40 | 1006.4 |
| 20260505185624 | 26 | 241 | 20.9 | 37.0 | 0.00 | 0.03 | 0.03 | 39 | 1006.6 |
| 20260505185121 | 26 | 228 | 12.9 | 30.6 | 0.00 | 0.03 | 0.03 | 40 | 1006.7 |
| 20260505184619 | 26 | 212 | 14.5 | 33.8 | 0.00 | 0.03 | 0.03 | 39 | 1006.8 |
| 20260505184119 | 26 | 299 | 20.9 | 33.8 | 0.00 | 0.03 | 0.03 | 39 | 1006.8 |
| 20260505183619 | 26 | 177 | 9.7 | 27.4 | 0.00 | 0.03 | 0.03 | 40 | 1006.9 |
| 20260505183610 | 26 | 115 | 8.0 | 27.4 | 0.00 | 0.03 | 0.03 | 43 | 1007.0 |
| 20260505182619 | 26 | 164 | 16.1 | 27.4 | 0.00 | 0.03 | 0.03 | 41 | 1007.0 |
| 20260505182117 | 26 | 249 | 9.7 | 27.4 | 0.00 | 0.03 | 0.03 | 38 | 1006.9 |
| 20260505181615 | 26 | 227 | 9.7 | 27.4 | 0.00 | 0.03 | 0.03 | 40 | 1007.0 |
| 20260505181115 | 26 | 250 | 11.3 | 32.2 | 0.00 | 0.03 | 0.03 | 39 | 1007.0 |
| 20260505180613 | 26 | 257 | 12.9 | 32.2 | 0.00 | 0.03 | 0.03 | 38 | 1006.9 |
| 20260505180113 | 25 | 208 | 12.9 | 35.4 | 0.00 | 0.03 | 0.03 | 40 | 1007.2 |
| 20260505175835 | 26 | 158 | 19.3 | 35.4 | 0.00 | 0.03 | 0.03 | 39 | 1007.2 |
| 20260505175338 | 26 | 237 | 12.9 | 24.1 | 0.00 | 0.03 | 0.03 | 40 | 1007.0 |
| 20260505174612 | 26 | 236 | 11.3 | 29.0 | 0.00 | 0.03 | 0.03 | 40 | 1007.1 |
| 20260505174115 | 26 | 243 | 11.3 | 33.8 | 0.00 | 0.03 | 0.03 | 41 | 1007.3 |
| 20260505173839 | 26 | 254 | 14.5 | 33.8 | 0.00 | 0.03 | 0.03 | 38 | 1007.4 |
| 20260505173112 | 26 | 234 | 19.3 | 33.8 | 0.00 | 0.03 | 0.03 | 40 | 1007.3 |
| 20260505172612 | 26 | 253 | 17.7 | 33.8 | 0.00 | 0.03 | 0.03 | 40 | 1007.3 |
| 20260505172345 | 26 | 220 | 20.9 | 33.8 | 0.00 | 0.03 | 0.03 | 40 | 1007.3 |
| 20260505171612 | 26 | 161 | 12.9 | 30.6 | 0.00 | 0.03 | 0.03 | 39 | 1007.2 |
| 20260505171110 | 26 | 252 | 16.1 | 30.6 | 0.00 | 0.03 | 0.03 | 40 | 1007.3 |
| 20260505170611 | 26 | 259 | 11.3 | 27.4 | 0.00 | 0.03 | 0.03 | 41 | 1007.3 |
| 20260505170111 | 26 | 244 | 14.5 | 27.4 | 0.00 | 0.03 | 0.03 | 39 | 1007.7 |
| 20260505165613 | 25 | 259 | 14.5 | 37.0 | 0.00 | 0.03 | 0.03 | 42 | 1007.9 |
| 20260505165110 | 26 | 254 | 17.7 | 37.0 | 0.00 | 0.03 | 0.03 | 40 | 1007.9 |
| 20260505164610 | 26 | 257 | 17.7 | 33.8 | 0.00 | 0.03 | 0.03 | 41 | 1007.8 |
| 20260505164334 | 26 | 205 | 11.3 | 30.6 | 0.00 | 0.03 | 0.03 | 44 | 1007.9 |
| 20260505163609 | 25 | 254 | 20.9 | 30.6 | 0.00 | 0.03 | 0.03 | 41 | 1008.0 |
| 20260505163328 | 25 | 239 | 14.5 | 25.7 | 0.00 | 0.03 | 0.03 | 41 | 1008.1 |
| 20260505162611 | 26 | 261 | 8.0 | 33.8 | 0.00 | 0.03 | 0.03 | 42 | 1008.1 |
| 20260505162110 | 25 | 242 | 17.7 | 33.8 | 0.00 | 0.03 | 0.03 | 43 | 1008.1 |
| 20260505161847 | 25 | 232 | 14.5 | 29.0 | 0.00 | 0.03 | 0.03 | 43 | 1008.0 |
| 20260505161109 | 25 | 234 | 14.5 | 29.0 | 0.00 | 0.03 | 0.03 | 44 | 1008.1 |
| 20260505160610 | 25 | 180 | 12.9 | 29.0 | 0.00 | 0.03 | 0.03 | 45 | 1008.2 |
| 20260505160117 | 25 | 229 | 14.5 | 29.0 | 0.00 | 0.03 | 0.03 | 44 | 1008.2 |
| 20260505153103 | 24 | 209 | 12.9 | 22.5 | 0.00 | 0.03 | 0.03 | 47 | 1008.6 |
| 20260505152607 | 24 | 147 | 9.7 | 19.3 | 0.00 | 0.03 | 0.03 | 49 | 1008.6 |
| 20260505152106 | 23 | 207 | 9.7 | 20.9 | 0.00 | 0.03 | 0.03 | 50 | 1008.6 |
| 20260505151600 | 23 | 257 | 8.0 | 25.7 | 0.00 | 0.03 | 0.03 | 50 | 1008.5 |
| 20260505151058 | 23 | 246 | 14.5 | 25.7 | 0.00 | 0.03 | 0.03 | 52 | 1008.6 |
| 20260505150559 | 23 | 205 | 4.8 | 27.4 | 0.00 | 0.03 | 0.03 | 53 | 1008.6 |
| 20260505140545 | 21 | 254 | 4.8 | 16.1 | 0.00 | 0.03 | 0.03 | 59 | 1009.0 |
| 20260505130300 | 18 | 164 | 6.4 | 11.3 | 0.00 | 0.03 | 0.03 | 64 | 1009.4 |
| 20260505125024 | 18 | 211 | 6.4 | 12.9 | 0.00 | 0.03 | 0.03 | 66 | 1009.3 |
| 20260505124521 | 18 | 176 | 1.6 | 11.3 | 0.00 | 0.03 | 0.03 | 68 | 1009.3 |
| 20260505124017 | 17 | 260 | 1.6 | 11.3 | 0.00 | 0.03 | 0.03 | 68 | 1009.2 |
| 20260505123740 | 17 | 199 | 1.6 | 3.2 | 0.00 | 0.03 | 0.03 | 70 | 1009.3 |
| 20260505123013 | 16 | 229 | 0.0 | 4.8 | 0.00 | 0.03 | 0.03 | 69 | 1009.4 |
| 20260505122511 | 16 | 194 | 0.0 | 6.4 | 0.00 | 0.03 | 0.03 | 72 | 1009.3 |
| 20260505122011 | 16 | 199 | 1.6 | 6.4 | 0.00 | 0.03 | 0.03 | 72 | 1009.3 |
| 20260505121751 | 16 | 267 | 0.0 | 6.4 | 0.00 | 0.03 | 0.03 | 73 | 1009.4 |
| 20260505121007 | 16 | 267 | 0.0 | 6.4 | 0.00 | 0.03 | 0.03 | 71 | 1009.3 |
| 20260505120730 | 16 | 265 | 0.0 | 6.4 | 0.00 | 0.03 | 0.03 | 70 | 1009.2 |
| 20260505120006 | 16 | 295 | 3.2 | 6.4 | 0.00 | 0.03 | 0.03 | 72 | 1009.1 |
| 20260505115731 | 16 | 182 | 1.6 | 3.2 | 0.00 | 0.03 | 0.03 | 72 | 1009.2 |
| 20260505115235 | 16 | 5 | 0.0 | 3.2 | 0.00 | 0.03 | 0.03 | 77 | 1009.1 |
| 20260505114730 | 15 | 5 | 1.6 | 4.8 | 0.00 | 0.03 | 0.03 | 83 | 1009.0 |
| 20260505114005 | 14 | 121 | 0.0 | 4.8 | 0.00 | 0.03 | 0.03 | 86 | 1008.9 |
| 20260505113505 | 14 | 53 | 1.6 | 4.8 | 0.00 | 0.03 | 0.03 | 86 | 1008.9 |
| 20260505113002 | 13 | 27 | 0.0 | 4.8 | 0.00 | 0.03 | 0.03 | 87 | 1009.0 |
| 20260505112503 | 13 | 255 | 1.6 | 4.8 | 0.00 | 0.03 | 0.03 | 89 | 1009.1 |
| 20260505112003 | 12 | 264 | 3.2 | 4.8 | 0.00 | 0.03 | 0.03 | 91 | 1009.1 |
| 20260505111501 | 12 | 37 | 1.6 | 4.8 | 0.00 | 0.03 | 0.03 | 93 | 1009.0 |
| 20260505111004 | 11 | 53 | 1.6 | 4.8 | 0.00 | 0.03 | 0.03 | 94 | 1009.0 |
| 20260505110502 | 10 | 186 | 0.0 | 3.2 | 0.00 | 0.03 | 0.03 | 94 | 1008.9 |
| 20260505110239 | 10 | 136 | 0.0 | 3.2 | 0.00 | 0.03 | 0.03 | 94 | 1008.9 |
| 20260505101955 | 10 | 34 | 6.4 | 9.7 | 0.00 | 0.03 | 0.03 | 95 | 1008.4 |
| 20260505101457 | 9 | 30 | 0.0 | 4.8 | 0.00 | 0.03 | 0.03 | 95 | 1008.5 |
| 20260505100957 | 10 | 107 | 3.2 | 4.8 | 0.00 | 0.03 | 0.03 | 94 | 1008.6 |
| 20260505100455 | 10 | 62 | 1.6 | 3.2 | 0.00 | 0.03 | 0.03 | 95 | 1008.4 |
| 20260505095956 | 10 | 62 | 0.0 | 4.8 | 0.00 | 0.03 | 0.03 | 95 | 1008.3 |
| 20260505095459 | 10 | 69 | 0.0 | 4.8 | 0.00 | 0.03 | 0.03 | 94 | 1008.4 |
| 20260505094958 | 10 | 53 | 0.0 | 3.2 | 0.00 | 0.03 | 0.03 | 94 | 1008.3 |
| 20260505094457 | 10 | 164 | 0.0 | 6.4 | 0.00 | 0.03 | 0.03 | 94 | 1008.4 |
| 20260505093956 | 10 | 236 | 3.2 | 6.4 | 0.00 | 0.03 | 0.03 | 94 | 1008.3 |
| 20260505093455 | 10 | 32 | 0.0 | 0.0 | 0.00 | 0.03 | 0.03 | 94 | 1008.1 |
| 20260505092955 | 10 | 32 | 0.0 | 0.0 | 0.00 | 0.03 | 0.03 | 94 | 1008.2 |
| 20260505092457 | 10 | 32 | 0.0 | 0.0 | 0.00 | 0.03 | 0.03 | 94 | 1008.2 |
| 20260505091956 | 10 | 32 | 0.0 | 0.0 | 0.00 | 0.03 | 0.03 | 94 | 1008.4 |
| 20260505091455 | 10 | 32 | 0.0 | 0.0 | 0.00 | 0.03 | 0.03 | 94 | 1008.4 |
| 20260505090955 | 10 | 32 | 0.0 | 0.0 | 0.00 | 0.03 | 0.03 | 94 | 1008.3 |
| 20260505090500 | 11 | 32 | 0.0 | 0.0 | 0.00 | 0.03 | 0.03 | 94 | 1008.2 |
| 20260505085957 | 11 | 32 | 0.0 | 0.0 | 0.00 | 0.03 | 0.03 | 93 | 1008.2 |
| 20260505085455 | 11 | 32 | 0.0 | 0.0 | 0.00 | 0.03 | 0.03 | 93 | 1008.3 |
| 20260505084955 | 11 | 32 | 0.0 | 0.0 | 0.00 | 0.03 | 0.03 | 93 | 1008.2 |
| 20260505084455 | 11 | 32 | 0.0 | 0.0 | 0.00 | 0.03 | 0.03 | 93 | 1008.2 |
| 20260505083951 | 11 | 32 | 0.0 | 0.0 | 0.00 | 0.03 | 0.03 | 93 | 1008.2 |
| 20260505083451 | 11 | 32 | 0.0 | 0.0 | 0.00 | 0.03 | 0.03 | 93 | 1008.2 |
| 20260505083231 | 11 | 32 | 0.0 | 0.0 | 0.00 | 0.03 | 0.03 | 92 | 1008.1 |
| 20260505082721 | 11 | 32 | 0.0 | 0.0 | 0.00 | 0.03 | 0.03 | 92 | 1008.1 |
| 20260505082215 | 11 | 32 | 0.0 | 0.0 | 0.00 | 0.03 | 0.03 | 92 | 1008.2 |
| 20260505081453 | 11 | 32 | 0.0 | 0.0 | 0.00 | 0.03 | 0.03 | 92 | 1008.2 |
| 20260505080950 | 11 | 32 | 0.0 | 0.0 | 0.00 | 0.03 | 0.03 | 92 | 1008.2 |
| 20260505080452 | 12 | 32 | 0.0 | 0.0 | 0.00 | 0.03 | 0.03 | 92 | 1008.0 |
| 20260505075953 | 12 | 32 | 0.0 | 3.2 | 0.00 | 0.03 | 0.03 | 92 | 1008.1 |
| 20260505075447 | 12 | 32 | 0.0 | 3.2 | 0.00 | 0.03 | 0.03 | 92 | 1008.1 |
| 20260505074945 | 12 | 42 | 0.0 | 3.2 | 0.03 | 0.03 | 0.03 | 92 | 1008.1 |
| 20260505074450 | 12 | 126 | 0.0 | 8.0 | 0.03 | 0.03 | 0.03 | 92 | 1008.1 |
| 20260505073945 | 12 | 126 | 1.6 | 8.0 | 0.03 | 0.03 | 0.03 | 92 | 1008.2 |
| 20260505073442 | 12 | 23 | 3.2 | 4.8 | 0.03 | 0.03 | 0.03 | 92 | 1008.1 |
| 20260505072943 | 12 | 30 | 0.0 | 3.2 | 0.03 | 0.03 | 0.03 | 91 | 1008.1 |
| 20260505072441 | 13 | 30 | 0.0 | 3.2 | 0.03 | 0.03 | 0.03 | 91 | 1008.2 |
| 20260505071940 | 13 | 30 | 1.6 | 4.8 | 0.03 | 0.03 | 0.03 | 91 | 1008.0 |
| 20260505071709 | 13 | 30 | 0.0 | 4.8 | 0.03 | 0.03 | 0.03 | 90 | 1007.9 |
| 20260505070938 | 13 | 54 | 1.6 | 4.8 | 0.03 | 0.03 | 0.03 | 89 | 1008.0 |
| 20260505070431 | 13 | 0 | 1.6 | 6.4 | 0.03 | 0.03 | 0.03 | 89 | 1008.0 |
| 20260505065931 | 13 | 53 | 3.2 | 6.4 | 0.03 | 0.03 | 0.03 | 88 | 1008.0 |
| 20260505065432 | 13 | 26 | 0.0 | 4.8 | 0.03 | 0.03 | 0.03 | 87 | 1008.2 |
| 20260505064932 | 13 | 30 | 3.2 | 4.8 | 0.00 | 0.00 | 0.00 | 87 | 1008.2 |
| 20260505064433 | 13 | 72 | 0.0 | 3.2 | 0.00 | 0.00 | 0.00 | 87 | 1008.1 |
| 20260505063929 | 13 | 67 | 1.6 | 4.8 | 0.00 | 0.00 | 0.00 | 87 | 1008.1 |
| 20260505063427 | 13 | 40 | 3.2 | 4.8 | 0.00 | 0.00 | 0.00 | 88 | 1008.2 |
| 20260505063151 | 13 | 88 | 1.6 | 4.8 | 0.00 | 0.00 | 0.00 | 86 | 1008.1 |
| 20260505062426 | 13 | 22 | 0.0 | 4.8 | 0.00 | 0.00 | 0.00 | 85 | 1007.9 |
| 20260505061929 | 13 | 22 | 3.2 | 4.8 | 0.00 | 0.00 | 0.00 | 85 | 1007.9 |
| 20260505061426 | 13 | 23 | 1.6 | 4.8 | 0.00 | 0.00 | 0.00 | 86 | 1008.1 |
| 20260505060919 | 13 | 23 | 3.2 | 4.8 | 0.00 | 0.00 | 0.00 | 85 | 1008.0 |
| 20260505060649 | 13 | 12 | 1.6 | 4.8 | 0.00 | 0.00 | 0.00 | 83 | 1008.0 |
| 20260505060619 | 14 | 9 | 0.0 | 4.8 | 0.00 | 0.00 | 0.00 | 79 | 1008.1 |
| 20260505055410 | 15 | 30 | 1.6 | 4.8 | 0.00 | 0.00 | 0.00 | 73 | 1008.2 |
| 20260505055138 | 15 | 106 | 1.6 | 3.2 | 0.00 | 0.00 | 0.00 | 68 | 1008.1 |
| 20260505054408 | 15 | 187 | 1.6 | 6.4 | 0.00 | 0.00 | 0.00 | 68 | 1008.2 |
| 20260505053909 | 15 | 155 | 1.6 | 6.4 | 0.00 | 0.00 | 0.00 | 67 | 1008.2 |
| 20260505053407 | 16 | 278 | 0.0 | 3.2 | 0.00 | 0.00 | 0.00 | 65 | 1008.1 |
| 20260505052913 | 15 | 248 | 0.0 | 4.8 | 0.00 | 0.00 | 0.00 | 66 | 1008.2 |
| 20260505052357 | 15 | 17 | 1.6 | 4.8 | 0.00 | 0.00 | 0.00 | 68 | 1008.1 |
| 20260505051904 | 15 | 297 | 3.2 | 4.8 | 0.00 | 0.00 | 0.00 | 68 | 1008.2 |
| 20260505051357 | 14 | 39 | 0.0 | 4.8 | 0.00 | 0.00 | 0.00 | 70 | 1008.2 |
| 20260505050859 | 15 | 12 | 0.0 | 6.4 | 0.00 | 0.00 | 0.00 | 68 | 1008.2 |
| 20260505050350 | 14 | 18 | 3.2 | 6.4 | 0.00 | 0.00 | 0.00 | 68 | 1008.1 |
| 20260505041600 | 15 | 37 | 0.0 | 6.4 | 0.00 | 0.00 | 0.00 | 66 | 1007.9 |
| 20260505040822 | 15 | 37 | 1.6 | 6.4 | 0.00 | 0.00 | 0.00 | 65 | 1007.8 |
| 20260505040323 | 14 | 29 | 3.2 | 6.4 | 0.00 | 0.00 | 0.00 | 67 | 1007.9 |
| 20260505035819 | 14 | 11 | 1.6 | 6.4 | 0.00 | 0.00 | 0.00 | 68 | 1007.7 |
| 20260505035312 | 14 | 31 | 1.6 | 3.2 | 0.00 | 0.00 | 0.00 | 67 | 1007.8 |
| 20260505034809 | 14 | 5 | 0.0 | 4.8 | 0.00 | 0.00 | 0.00 | 67 | 1007.7 |
| 20260505034300 | 14 | 5 | 3.2 | 4.8 | 0.00 | 0.00 | 0.00 | 67 | 1007.8 |
| 20260505034031 | 14 | 83 | 1.6 | 4.8 | 0.00 | 0.00 | 0.00 | 66 | 1007.7 |
| 20260505033256 | 15 | 45 | 3.2 | 4.8 | 0.00 | 0.00 | 0.00 | 64 | 1007.7 |
| 20260505032745 | 15 | 307 | 1.6 | 6.4 | 0.00 | 0.00 | 0.00 | 64 | 1007.9 |
| 20260505032244 | 15 | 346 | 1.6 | 6.4 | 0.00 | 0.00 | 0.00 | 64 | 1007.9 |
| 20260505032010 | 14 | 317 | 0.0 | 4.8 | 0.00 | 0.00 | 0.00 | 65 | 1007.9 |
| 20260505031516 | 15 | 20 | 1.6 | 3.2 | 0.00 | 0.00 | 0.00 | 64 | 1007.9 |
| 20260505030733 | 15 | 24 | 1.6 | 3.2 | 0.00 | 0.00 | 0.00 | 64 | 1007.8 |
| 20260505030230 | 15 | 15 | 1.6 | 4.8 | 0.00 | 0.00 | 0.00 | 62 | 1007.7 |
| 20260505025729 | 15 | 13 | 3.2 | 4.8 | 0.00 | 0.00 | 0.00 | 62 | 1007.7 |
| 20260505025227 | 15 | 34 | 0.0 | 6.4 | 0.00 | 0.00 | 0.00 | 61 | 1007.7 |
| 20260505024729 | 15 | 123 | 3.2 | 6.4 | 0.00 | 0.00 | 0.00 | 62 | 1007.8 |
| 20260505024223 | 15 | 93 | 1.6 | 3.2 | 0.00 | 0.00 | 0.00 | 64 | 1007.9 |
| 20260505023712 | 15 | 94 | 0.0 | 3.2 | 0.00 | 0.00 | 0.00 | 60 | 1007.8 |
| 20260505023210 | 15 | 352 | 0.0 | 3.2 | 0.00 | 0.00 | 0.00 | 61 | 1007.9 |
| 20260505022711 | 16 | 352 | 0.0 | 4.8 | 0.00 | 0.00 | 0.00 | 60 | 1007.8 |
| 20260505022205 | 16 | 334 | 1.6 | 4.8 | 0.00 | 0.00 | 0.00 | 59 | 1007.8 |
| 20260505021700 | 16 | 5 | 0.0 | 4.8 | 0.00 | 0.00 | 0.00 | 59 | 1007.9 |
| 20260505021200 | 16 | 355 | 1.6 | 4.8 | 0.00 | 0.00 | 0.00 | 59 | 1007.9 |
| 20260505020658 | 16 | 355 | 1.6 | 4.8 | 0.00 | 0.00 | 0.00 | 59 | 1008.0 |
| 20260505020159 | 16 | 355 | 1.6 | 4.8 | 0.00 | 0.00 | 0.00 | 58 | 1008.1 |
| 20260505015922 | 16 | 327 | 1.6 | 3.2 | 0.00 | 0.00 | 0.00 | 58 | 1008.0 |
| 20260505015150 | 16 | 344 | 0.0 | 6.4 | 0.00 | 0.00 | 0.00 | 56 | 1007.9 |
| 20260505014650 | 17 | 202 | 0.0 | 6.4 | 0.00 | 0.00 | 0.00 | 54 | 1007.9 |
| 20260505014424 | 17 | 184 | 1.6 | 6.4 | 0.00 | 0.00 | 0.00 | 54 | 1007.9 |
| 20260505013650 | 17 | 137 | 3.2 | 8.0 | 0.00 | 0.00 | 0.00 | 54 | 1008.1 |
| 20260505013142 | 17 | 167 | 0.0 | 8.0 | 0.00 | 0.00 | 0.00 | 54 | 1008.0 |
| 20260505012915 | 17 | 238 | 1.6 | 8.0 | 0.00 | 0.00 | 0.00 | 54 | 1008.0 |
| 20260505012139 | 17 | 255 | 0.0 | 8.0 | 0.00 | 0.00 | 0.00 | 54 | 1008.0 |
| 20260505011638 | 18 | 181 | 1.6 | 8.0 | 0.00 | 0.00 | 0.00 | 52 | 1007.9 |
| 20260505011136 | 18 | 166 | 1.6 | 11.3 | 0.00 | 0.00 | 0.00 | 52 | 1007.9 |
| 20260505010622 | 18 | 237 | 3.2 | 9.7 | 0.00 | 0.00 | 0.00 | 52 | 1007.8 |
| 20260505010121 | 18 | 126 | 4.8 | 12.9 | 0.00 | 0.00 | 0.00 | 53 | 1007.7 |
| 20260505005623 | 17 | 271 | 1.6 | 12.9 | 0.00 | 0.00 | 0.00 | 55 | 1007.4 |
| 20260505005119 | 16 | 15 | 3.2 | 9.7 | 0.00 | 0.00 | 0.00 | 58 | 1007.4 |
| 20260505004613 | 16 | 39 | 3.2 | 4.8 | 0.00 | 0.00 | 0.00 | 58 | 1007.3 |
| 20260505004555 | 17 | 121 | 0.0 | 4.8 | 0.00 | 0.00 | 0.00 | 57 | 1007.3 |
| 20260505003611 | 17 | 0 | 1.6 | 4.8 | 0.00 | 0.00 | 0.00 | 55 | 1007.2 |
| 20260505003109 | 17 | 300 | 1.6 | 3.2 | 0.00 | 0.00 | 0.00 | 54 | 1007.1 |
| 20260505002609 | 18 | 244 | 0.0 | 4.8 | 0.00 | 0.00 | 0.00 | 52 | 1007.1 |
| 20260505002109 | 19 | 216 | 0.0 | 6.4 | 0.00 | 0.00 | 0.00 | 48 | 1007.0 |
| 20260505001607 | 20 | 205 | 3.2 | 9.7 | 0.00 | 0.00 | 0.00 | 48 | 1007.0 |
| 20260505001107 | 20 | 253 | 1.6 | 11.3 | 0.00 | 0.00 | 0.00 | 47 | 1007.0 |
| 20260505000600 | 20 | 237 | 3.2 | 11.3 | 0.00 | 0.00 | 0.00 | 47 | 1006.9 |
| 20260505000328 | 20 | 279 | 3.2 | 12.9 | 0.00 | 0.00 | 0.00 | 47 | 1006.9 |
| 20260504235601 | 20 | 190 | 3.2 | 12.9 | 0.00 | 0.00 | 0.00 | 46 | 1006.9 |
| 20260504235045 | 20 | 211 | 3.2 | 14.5 | 0.00 | 0.00 | 0.00 | 46 | 1006.8 |
| 20260504234546 | 20 | 192 | 4.8 | 14.5 | 0.00 | 0.00 | 0.00 | 45 | 1006.7 |
| 20260504234046 | 20 | 198 | 3.2 | 12.9 | 0.00 | 0.00 | 0.00 | 45 | 1006.7 |
| 20260504233541 | 20 | 175 | 8.0 | 14.5 | 0.00 | 0.00 | 0.00 | 45 | 1006.7 |
| 20260504233041 | 20 | 227 | 6.4 | 16.1 | 0.00 | 0.00 | 0.00 | 45 | 1006.6 |
| 20260504232538 | 21 | 229 | 6.4 | 24.1 | 0.00 | 0.00 | 0.00 | 45 | 1006.5 |
| 20260504232037 | 21 | 248 | 9.7 | 24.1 | 0.00 | 0.00 | 0.00 | 44 | 1006.5 |
| 20260504231538 | 21 | 224 | 4.8 | 12.9 | 0.00 | 0.00 | 0.00 | 44 | 1006.5 |
| 20260504231039 | 21 | 227 | 4.8 | 12.9 | 0.00 | 0.00 | 0.00 | 44 | 1006.6 |
| 20260504231022 | 21 | 227 | 1.6 | 17.7 | 0.00 | 0.00 | 0.00 | 44 | 1006.6 |
| 20260504230038 | 21 | 171 | 3.2 | 17.7 | 0.00 | 0.00 | 0.00 | 43 | 1006.5 |
| 20260504225535 | 21 | 200 | 6.4 | 27.4 | 0.00 | 0.00 | 0.00 | 43 | 1006.5 |
| 20260504225033 | 21 | 229 | 14.5 | 29.0 | 0.00 | 0.00 | 0.00 | 42 | 1006.3 |